Location: Sternwarte_Laufen
(47.9344°N, 12.9346°E)
Time: 07:02:56
(UTC+02:00)

Tiros 1 despin weight - All Passes

Search period start: 08 June 2026 00:00
Search period end: 18 June 2026 00:00
Orbit: 554 x 591 km, 48.2° (Epoch: 7 June)

Date Brightness Start Highest point End Pass type
(mag) Time Alt. Az. Time Alt. Az. Time Alt. Az.
8 Jun - 00:01:32 10° W 00:05:57 86° N 00:10:17 10° E visible
8 Jun - 01:42:10 10° W 01:46:24 54° SSW 01:50:36 10° SE visible
8 Jun - 03:23:34 10° W 03:26:18 16° SW 03:28:59 10° S visible
8 Jun - 20:42:44 10° SW 20:46:44 35° SSE 20:50:44 10° E daylight
8 Jun - 22:22:37 10° WSW 22:27:01 83° SSE 22:31:24 10° E visible
9 Jun - 00:03:14 10° W 00:07:38 89° S 00:11:59 10° E visible
9 Jun - 01:43:53 10° W 01:48:00 42° SSW 01:52:03 10° SE visible
9 Jun - 03:26:25 10° WSW 03:27:41 11° SW 03:28:57 10° SSW visible
9 Jun - 19:06:26 10° SSE 19:08:30 13° SE 19:10:34 10° ESE daylight
9 Jun - 20:44:04 10° SW 20:48:17 46° SSE 20:52:29 10° E daylight
9 Jun - 22:24:17 10° W 22:28:41 89° NNW 22:33:05 10° E visible
10 Jun - 00:04:54 10° W 00:09:17 80° SSW 00:13:38 10° ESE visible
10 Jun - 01:45:40 10° W 01:49:31 31° SSW 01:53:21 10° SSE visible
10 Jun - 19:06:49 10° S 19:09:54 19° SE 19:12:59 10° E daylight
10 Jun - 20:45:32 10° WSW 20:49:52 59° SSE 20:54:11 10° E daylight
10 Jun - 22:25:58 10° W 22:30:23 86° N 22:34:46 10° E visible
11 Jun - 00:06:35 10° W 00:10:57 68° SSW 00:15:14 10° ESE visible
11 Jun - 01:47:32 10° W 01:51:00 23° SW 01:54:25 10° SSE visible
11 Jun - 19:07:42 10° SSW 19:11:21 26° SE 19:15:00 10° E daylight
11 Jun - 20:47:06 10° WSW 20:51:29 72° SSE 20:55:51 10° E daylight
11 Jun - 22:27:38 10° W 22:32:03 86° N 22:36:26 10° E visible
12 Jun - 00:08:15 10° W 00:12:32 55° SSW 00:16:46 10° SE visible
12 Jun - 01:49:39 10° W 01:52:25 17° SW 01:55:12 10° S visible
12 Jun - 19:08:50 10° SW 19:12:49 35° SSE 19:16:49 10° E daylight
12 Jun - 20:48:42 10° WSW 20:53:07 83° SSE 20:57:31 10° E daylight
12 Jun - 22:29:18 10° W 22:33:43 89° SSW 22:38:06 10° E visible
13 Jun - 00:09:57 10° W 00:14:06 42° SSW 00:18:11 10° SE visible
13 Jun - 01:52:22 10° WSW 01:53:48 11° SW 01:55:14 10° SSW visible
13 Jun - 17:32:33 10° SSE 17:34:35 13° SE 17:36:36 10° ESE daylight
13 Jun - 19:10:09 10° SW 19:14:21 46° SSE 19:18:33 10° E daylight
13 Jun - 20:50:20 10° W 20:54:46 90° N 20:59:10 10° E daylight
13 Jun - 22:30:57 10° W 22:35:21 80° SSW 22:39:44 10° ESE visible
14 Jun - 00:11:41 10° W 00:15:36 32° SSW 00:19:28 10° SSE visible
14 Jun - 17:32:53 10° S 17:35:56 19° SE 17:39:00 10° E daylight
14 Jun - 19:11:35 10° WSW 19:15:54 58° SSE 19:20:13 10° E daylight
14 Jun - 20:51:59 10° W 20:56:24 86° N 21:00:49 10° E daylight
14 Jun - 22:32:35 10° W 22:36:58 69° SSW 22:41:19 10° ESE visible
15 Jun - 00:13:33 10° W 00:17:03 24° SW 00:20:31 10° SSE visible
15 Jun - 17:33:44 10° SSW 17:37:21 25° SE 17:40:59 10° E daylight
15 Jun - 19:13:06 10° WSW 19:17:29 71° SSE 19:21:52 10° E daylight
15 Jun - 20:53:38 10° W 20:58:03 86° N 21:02:28 10° E daylight
15 Jun - 22:34:14 10° W 22:38:33 55° SSW 22:42:49 10° SE visible
16 Jun - 00:15:35 10° W 00:18:27 17° SW 00:21:17 10° S visible
16 Jun - 17:34:50 10° SW 17:38:48 34° SSE 17:42:48 10° E daylight
16 Jun - 19:14:40 10° WSW 19:19:05 82° S 19:23:30 10° E daylight
16 Jun - 20:55:16 10° W 20:59:41 89° S 21:04:06 10° E daylight
16 Jun - 22:35:54 10° W 22:40:04 43° SSW 22:44:12 10° SE visible
17 Jun - 00:18:12 10° WSW 00:19:48 12° SW 00:21:22 10° SSW visible
17 Jun - 15:58:37 10° SSE 16:00:32 13° SE 16:02:28 10° ESE daylight
17 Jun - 17:36:07 10° SW 17:40:18 45° SSE 17:44:30 10° E daylight
17 Jun - 19:16:17 10° W 19:20:42 90° NW 19:25:07 10° E daylight
17 Jun - 20:56:54 10° W 21:01:18 81° SSW 21:05:41 10° ESE daylight
17 Jun - 22:37:37 10° W 22:41:33 33° SSW 22:45:27 10° SSE visible
